Regional Weather Roundup
Issued by NWS State College, PA

Home | Current Version | Previous Version | Graphics & Text | Print | Product List | Glossary On
Versions: 1 2 3 4 5 6 7 8 9 10 11 12 13 14 15 16 17 18 19 20 21 22 23 24 25 26 27 28 29 30 31 32 33 34 35 36 37 38 39 40 41 42 43 44 45 46 47 48 49 50
000
ASUS41 KCTP 240203
RWRCTP

REGIONAL WEATHER ROUNDUP
NATIONAL WEATHER SERVICE STATE COLLEGE PA
1000 PM EDT WED AUG 23 2017

Note: "fair" indicates few or no clouds below 12,000 feet with no
significant weather and/or obstructions to visibility.

* = STATION THAT DOES NOT REPORT PRECIPITATION /E.G. RAIN...SNOW...ETC/
    THUNDER OR FOG.

PAZ002>004-007>009-013>016-020>023-029>032-240300-
WESTERN PENNSYLVANIA

CITY           SKY/WX    TMP DP  RH WIND       PRES   REMARKS
ERIE           FAIR      68  54  60 NW6       29.95R
MEADVILLE      FAIR      61  55  81 W5        29.98R
FRANKLIN*      FAIR      57  48  72 W3        29.98S
NEW CASTLE     FAIR      59  56  89 CALM      29.98R
BEAVER COUNTY  NOT AVBL
BUTLER*        CLOUDY    62  57  83 CALM      29.99R
PITTSBURGH INT MOCLDY    68  54  60 W3        29.97R
PITTSBURGH     FAIR      67  52  58 W5        29.97R
INDIANA*       CLOUDY    64  61  88 CALM      30.00R
LATROBE        PTCLDY    64  57  77 CALM      29.98R
WASHINGTON CO* FAIR      57  54  88 CALM      29.98S
$$

PAZ004>006-010>012-017>019-024>028-033>037-041-042-045-046-049>053-240300-
CENTRAL PENNSYLVANIA

CITY           SKY/WX    TMP DP  RH WIND       PRES   REMARKS
BRADFORD       FAIR      58  52  80 CALM      29.98R
DUBOIS         FAIR      57  51  80 SW3       29.98R
CLEARFIELD     FAIR      60  57  89 N5        29.97R
JOHNSTOWN      FAIR      62  52  69 NW5       30.00R
ALTOONA        MOCLDY    61  60  97 CALM      29.98R
STATE COLLEGE  NOT AVBL
WILLIAMSPORT   FAIR      65  60  84 CALM      29.90R
SELINSGROVE    FAIR      61  61 100 CALM      29.92R
FT INDIANTOWN  FAIR      61  58  90 CALM      29.91S
CAPITAL CITY   FAIR      68  56  65 W5        29.91S
HARRISBURG     FAIR      69  59  70 N3        29.90S
YORK           FAIR      61  60  97 CALM      29.92R
$$

PAZ038>040-043-044-047-048-054-055-060>062-067>071-240300-
EASTERN PENNSYLVANIA

CITY           SKY/WX    TMP DP  RH WIND       PRES   REMARKS
SCRANTON       MOCLDY    64  56  75 SE3       29.91R
MOUNT POCONO   FAIR      53  53 100 CALM      29.94S
ALLENTOWN      FAIR      66  55  67 W6        29.90R
QUAKERTOWN*    FAIR      63  59  88 CALM      29.91S
READING        FAIR      64  60  87 CALM      29.89S
LANCASTER      FAIR      67  60  78 CALM      29.91R
COATESVILLE    FAIR      64  59  82 NW3       29.92F
POTTSTOWN      FAIR      63  60  90 CALM      29.91F
BLUE BELL      FAIR      61  61 100 CALM      29.90F
DOYLESTOWN     FAIR      64  59  83 CALM      29.88F
WILLOW GROVE   NOT AVBL
NORTH PHILA    FAIR      73  57  57 NW5       29.89F
PHILADELPHIA   FAIR      75  56  51 NW6       29.88F
$$




USA.gov is the U.S. government's official web portal to all federal, state and local government web resources and services.